Precipitable_Water
0.26 0.19 0.17 0.15 0.16 0.18 0.18 0.19 0.18 0.19 0.19 0.17 0.18 0.17 0.15 0.12 0.13 0.14 0.12 0.15 0.20 0.18 0.16 0.13 0.13 0.16 0.30 0.47 0.52 0.65 0.72 0.66 0.68 0.73 0.75 0.78 0.82 0.86 0.93 1.00 1.03 1.04 1.13 1.32 1.40 1.45 1.43 1.45 1.48 1.49 1.48 1.47 1.47 1.45 1.43 1.43 1.46 1.51 1.48 1.46 1.47 1.56 1.61 1.59 1.56 1.59 1.54 1.49 1.48 1.51 1.50 1.47 1.52 1.50 1.56 1.55 1.57 1.57 1.65 1.62 1.56 1.51 1.49 1.50 1.44 1.45
0.25 0.18 0.17 0.18 0.18 0.18 0.18 0.19 0.19 0.18 0.19 0.18 0.16 0.17 0.15 0.13 0.12 0.14 0.13 0.14 0.21 0.19 0.17 0.16 0.13 0.15 0.33 0.51 0.51 0.59 0.62 0.58 0.65 0.70 0.74 0.80 0.85 0.86 0.87 0.93 0.96 1.05 1.19 1.23 1.26 1.38 1.41 1.44 1.49 1.49 1.45 1.43 1.37 1.40 1.41 1.38 1.42 1.45 1.48 1.49 1.51 1.55 1.55 1.50 1.53 1.57 1.53 1.52 1.51 1.52 1.53 1.52 1.53 1.52 1.51 1.50 1.53 1.53 1.67 1.58 1.50 1.42 1.38 1.33 1.28 1.25
0.19 0.17 0.18 0.20 0.19 0.18 0.17 0.17 0.20 0.18 0.17 0.18 0.17 0.17 0.15 0.14 0.12 0.15 0.15 0.14 0.18 0.21 0.20 0.16 0.13 0.15 0.42 0.51 0.57 0.60 0.59 0.62 0.68 0.72 0.76 0.81 0.85 0.87 0.90 0.94 0.93 0.94 1.00 1.07 1.16 1.26 1.35 1.41 1.44 1.46 1.44 1.45 1.44 1.41 1.38 1.43 1.44 1.45 1.46 1.49 1.49 1.51 1.49 1.53 1.57 1.51 1.46 1.53 1.59 1.57 1.54 1.54 1.49 1.53 1.53 1.54 1.53 1.55 1.58 1.46 1.36 1.31 1.24 1.22 1.19 1.19
0.17 0.18 0.20 0.20 0.19 0.17 0.17 0.17 0.18 0.18 0.16 0.17 0.17 0.15 0.14 0.15 0.13 0.12 0.14 0.15 0.15 0.20 0.19 0.16 0.13 0.20 0.60 0.64 0.65 0.68 0.69 0.69 0.75 0.77 0.79 0.83 0.84 0.88 0.89 0.88 0.92 0.93 0.89 0.92 1.04 1.17 1.33 1.40 1.39 1.40 1.38 1.40 1.42 1.43 1.42 1.44 1.43 1.45 1.45 1.46 1.44 1.46 1.54 1.58 1.59 1.59 1.57 1.56 1.57 1.57 1.52 1.52 1.50 1.43 1.52 1.52 1.41 1.46 1.47 1.29 1.23 1.21 1.19 1.17 1.14 1.15
0.17 0.19 0.23 0.21 0.20 0.18 0.16 0.17 0.16 0.16 0.15 0.16 0.17 0.16 0.17 0.16 0.15 0.13 0.15 0.15 0.17 0.20 0.18 0.16 0.15 0.43 0.56 0.57 0.61 0.65 0.72 0.68 0.68 0.77 0.75 0.85 0.94 1.01 1.01 0.95 0.97 0.93 0.94 0.92 0.95 1.09 1.23 1.30 1.32 1.33 1.37 1.41 1.34 1.35 1.37 1.40 1.41 1.43 1.44 1.44 1.45 1.46 1.50 1.54 1.57 1.60 1.60 1.56 1.47 1.45 1.47 1.49 1.44 1.45 1.38 1.31 1.33 1.34 1.27 1.20 1.15 1.12 1.15 1.13 1.11 1.10
0.20 0.21 0.22 0.20 0.19 0.18 0.16 0.16 0.16 0.16 0.15 0.15 0.16 0.17 0.19 0.19 0.16 0.14 0.19 0.16 0.16 0.18 0.17 0.16 0.14 0.28 0.48 0.53 0.55 0.61 0.64 0.62 0.69 0.67 0.70 0.79 0.89 0.94 0.88 0.90 0.98 1.02 1.07 0.99 1.02 1.09 1.17 1.24 1.32 1.35 1.37 1.34 1.31 1.30 1.37 1.43 1.43 1.45 1.46 1.50 1.53 1.53 1.56 1.53 1.52 1.56 1.59 1.52 1.46 1.41 1.36 1.27 1.29 1.21 1.24 1.16 1.18 1.15 1.14 1.11 1.15 1.11 1.11 1.11 1.07 1.06
0.22 0.23 0.22 0.20 0.19 0.18 0.18 0.18 0.19 0.18 0.15 0.14 0.14 0.18 0.20 0.21 0.17 0.15 0.18 0.16 0.17 0.15 0.17 0.16 0.12 0.17 0.48 0.45 0.53 0.51 0.54 0.56 0.64 0.67 0.67 0.78 0.86 0.89 0.91 0.91 0.96 0.97 1.02 1.11 1.13 1.17 1.18 1.25 1.29 1.29 1.30 1.31 1.29 1.34 1.39 1.41 1.44 1.48 1.49 1.51 1.51 1.48 1.49 1.53 1.48 1.47 1.50 1.41 1.41 1.40 1.32 1.37 1.28 1.21 1.24 1.36 1.28 1.18 1.16 1.17 1.12 1.10 1.08 1.07 1.04 1.01
0.24 0.22 0.22 0.21 0.20 0.19 0.18 0.16 0.18 0.17 0.15 0.14 0.17 0.18 0.22 0.22 0.18 0.16 0.16 0.19 0.18 0.19 0.20 0.18 0.14 0.19 0.36 0.49 0.61 0.54 0.45 0.49 0.54 0.65 0.66 0.70 0.83 0.88 0.89 0.92 0.94 0.98 1.03 1.03 1.08 1.15 1.20 1.24 1.27 1.25 1.28 1.28 1.33 1.38 1.41 1.40 1.43 1.43 1.44 1.46 1.46 1.46 1.44 1.44 1.44 1.46 1.46 1.36 1.33 1.34 1.35 1.38 1.27 1.28 1.30 1.26 1.22 1.19 1.15 1.11 1.08 1.05 1.03 1.02 1.00 0.96
0.24 0.22 0.22 0.21 0.20 0.19 0.18 0.18 0.18 0.18 0.15 0.15 0.19 0.21 0.21 0.21 0.18 0.16 0.15 0.16 0.19 0.20 0.17 0.18 0.15 0.11 0.25 0.37 0.52 0.59 0.48 0.48 0.49 0.54 0.66 0.69 0.77 0.84 0.88 0.89 0.93 1.02 1.05 1.02 1.01 1.07 1.11 1.13 1.20 1.22 1.21 1.30 1.35 1.38 1.36 1.38 1.40 1.40 1.41 1.41 1.42 1.41 1.40 1.43 1.43 1.41 1.36 1.37 1.34 1.31 1.26 1.21 1.38 1.34 1.25 1.23 1.19 1.13 1.12 1.06 1.05 1.02 1.02 0.98 0.95 0.90
0.25 0.24 0.23 0.23 0.20 0.19 0.21 0.20 0.19 0.19 0.16 0.18 0.22 0.21 0.20 0.20 0.19 0.18 0.17 0.16 0.17 0.18 0.16 0.16 0.14 0.10 0.10 0.40 0.47 0.56 0.54 0.44 0.45 0.50 0.62 0.70 0.70 0.79 0.89 0.88 0.96 1.02 1.06 1.04 1.07 1.10 1.11 1.16 1.19 1.24 1.29 1.31 1.34 1.38 1.39 1.39 1.37 1.34 1.36 1.35 1.35 1.34 1.39 1.41 1.41 1.38 1.33 1.33 1.34 1.27 1.20 1.25 1.27 1.24 1.20 1.17 1.12 1.09 1.08 1.02 1.00 0.99 0.95 0.93 0.89 0.86
0.25 0.27 0.28 0.24 0.20 0.21 0.22 0.21 0.21 0.22 0.19 0.20 0.21 0.18 0.17 0.17 0.17 0.19 0.21 0.18 0.16 0.15 0.16 0.18 0.15 0.11 0.09 0.29 0.34 0.37 0.43 0.45 0.49 0.55 0.65 0.69 0.71 0.81 0.91 0.91 0.95 0.92 0.98 0.99 1.02 1.09 1.14 1.20 1.23 1.27 1.27 1.30 1.34 1.36 1.36 1.34 1.33 1.34 1.34 1.32 1.32 1.33 1.36 1.38 1.34 1.33 1.32 1.30 1.30 1.26 1.24 1.25 1.21 1.19 1.16 1.11 1.05 1.05 1.02 0.98 0.97 0.93 0.89 0.85 0.82 0.83
0.25 0.25 0.24 0.24 0.24 0.24 0.24 0.21 0.22 0.21 0.21 0.19 0.19 0.17 0.17 0.15 0.16 0.18 0.20 0.19 0.14 0.13 0.15 0.18 0.16 0.15 0.10 0.30 0.37 0.42 0.45 0.46 0.46 0.53 0.65 0.61 0.67 0.75 0.88 0.91 0.97 0.97 0.98 1.02 1.04 1.04 1.10 1.15 1.21 1.22 1.21 1.27 1.29 1.32 1.33 1.34 1.34 1.33 1.33 1.31 1.27 1.31 1.32 1.32 1.30 1.26 1.24 1.23 1.25 1.23 1.22 1.20 1.18 1.16 1.12 1.06 1.00 1.00 0.97 0.96 0.91 0.89 0.86 0.81 0.80 0.79
0.22 0.23 0.25 0.24 0.25 0.23 0.21 0.20 0.19 0.20 0.19 0.18 0.18 0.16 0.15 0.14 0.13 0.14 0.17 0.14 0.13 0.13 0.17 0.17 0.17 0.15 0.14 0.28 0.36 0.45 0.49 0.56 0.54 0.53 0.51 0.57 0.65 0.76 0.90 0.92 0.95 0.93 0.97 0.99 1.07 1.07 1.08 1.11 1.12 1.11 1.16 1.22 1.22 1.26 1.30 1.32 1.31 1.31 1.31 1.28 1.23 1.23 1.26 1.22 1.23 1.19 1.18 1.19 1.19 1.18 1.17 1.16 1.15 1.12 1.09 1.04 0.99 0.98 0.94 0.91 0.87 0.83 0.78 0.77 0.75 0.75
0.23 0.24 0.23 0.21 0.22 0.23 0.23 0.18 0.17 0.18 0.20 0.18 0.16 0.15 0.15 0.14 0.12 0.11 0.13 0.15 0.15 0.17 0.20 0.18 0.17 0.14 0.17 0.28 0.36 0.38 0.42 0.50 0.59 0.57 0.58 0.62 0.60 0.64 0.83 0.93 0.96 1.02 1.02 1.07 1.09 1.08 1.07 1.09 1.09 1.11 1.14 1.17 1.19 1.23 1.26 1.26 1.24 1.25 1.24 1.23 1.20 1.18 1.18 1.17 1.15 1.15 1.14 1.13 1.12 1.13 1.13 1.12 1.09 1.06 1.04 1.02 0.98 0.97 0.93 0.91 0.85 0.80 0.77 0.74 0.74 0.73
0.18 0.16 0.20 0.21 0.20 0.24 0.22 0.20 0.19 0.16 0.16 0.16 0.16 0.17 0.18 0.16 0.13 0.11 0.13 0.12 0.13 0.15 0.16 0.18 0.14 0.12 0.13 0.20 0.41 0.41 0.49 0.50 0.56 0.58 0.58 0.65 0.77 0.78 0.89 0.94 0.96 0.96 0.97 1.03 1.05 1.05 1.04 1.07 1.09 1.11 1.13 1.16 1.17 1.19 1.21 1.21 1.20 1.20 1.18 1.17 1.16 1.14 1.13 1.11 1.11 1.10 1.06 1.06 1.05 1.07 1.09 1.07 1.06 1.04 1.02 1.00 0.99 0.95 0.90 0.87 0.82 0.80 0.79 0.74 0.74 0.74
0.19 0.20 0.26 0.28 0.26 0.24 0.21 0.21 0.20 0.18 0.16 0.16 0.16 0.19 0.20 0.18 0.18 0.13 0.14 0.15 0.15 0.14 0.14 0.14 0.15 0.18 0.19 0.33 0.39 0.44 0.49 0.50 0.54 0.60 0.59 0.63 0.85 0.81 0.85 0.84 0.84 0.86 0.91 1.01 1.03 1.05 1.07 1.08 1.10 1.10 1.11 1.15 1.16 1.18 1.19 1.18 1.18 1.15 1.15 1.17 1.15 1.12 1.11 1.11 1.10 1.07 1.04 1.04 1.05 1.05 1.04 1.03 1.02 1.01 1.00 0.98 0.97 0.94 0.90 0.83 0.80 0.78 0.78 0.77 0.76 0.75
0.22 0.22 0.27 0.27 0.26 0.22 0.21 0.22 0.19 0.19 0.14 0.15 0.17 0.17 0.19 0.21 0.19 0.17 0.17 0.19 0.20 0.17 0.13 0.15 0.16 0.22 0.35 0.30 0.38 0.39 0.48 0.50 0.55 0.58 0.61 0.69 0.84 0.81 0.79 0.83 0.86 0.86 0.93 1.00 1.01 1.05 1.09 1.08 1.09 1.11 1.11 1.13 1.16 1.18 1.19 1.18 1.17 1.15 1.15 1.15 1.13 1.13 1.12 1.09 1.07 1.05 1.04 1.04 1.03 1.03 1.02 1.01 1.00 0.99 0.96 0.93 0.91 0.88 0.85 0.81 0.80 0.77 0.76 0.76 0.76 0.74
0.22 0.24 0.29 0.26 0.22 0.21 0.22 0.21 0.20 0.19 0.19 0.17 0.15 0.18 0.23 0.25 0.23 0.20 0.15 0.17 0.15 0.15 0.13 0.16 0.16 0.21 0.21 0.28 0.35 0.42 0.42 0.48 0.53 0.57 0.61 0.72 0.84 0.73 0.81 0.85 0.87 0.90 0.96 0.99 1.04 1.09 1.08 1.07 1.09 1.12 1.14 1.15 1.16 1.18 1.18 1.17 1.18 1.18 1.19 1.16 1.12 1.09 1.05 1.05 1.04 1.02 1.01 1.00 1.00 1.00 0.99 0.98 0.97 0.96 0.95 0.93 0.89 0.86 0.82 0.80 0.79 0.78 0.76 0.75 0.77 0.76
0.26 0.23 0.26 0.26 0.22 0.21 0.21 0.20 0.19 0.19 0.20 0.17 0.16 0.21 0.20 0.18 0.16 0.18 0.17 0.15 0.14 0.13 0.15 0.15 0.17 0.17 0.21 0.27 0.36 0.41 0.40 0.44 0.55 0.64 0.64 0.67 0.72 0.69 0.77 0.80 0.83 0.93 0.94 0.95 1.02 1.05 1.04 1.06 1.09 1.11 1.13 1.16 1.16 1.18 1.15 1.15 1.17 1.17 1.16 1.16 1.12 1.07 1.05 1.03 1.02 1.02 1.01 0.99 0.98 0.99 0.98 0.96 0.95 0.94 0.93 0.92 0.89 0.85 0.80 0.77 0.77 0.77 0.77 0.76 0.74 0.73
0.26 0.23 0.24 0.27 0.22 0.21 0.19 0.19 0.16 0.17 0.19 0.20 0.20 0.19 0.20 0.18 0.16 0.16 0.16 0.18 0.19 0.14 0.13 0.15 0.16 0.15 0.20 0.28 0.33 0.39 0.42 0.46 0.52 0.53 0.52 0.58 0.69 0.70 0.77 0.80 0.83 0.87 0.90 0.95 1.00 1.04 1.04 1.08 1.11 1.12 1.12 1.11 1.12 1.12 1.12 1.11 1.12 1.12 1.12 1.11 1.10 1.09 1.06 1.03 0.99 0.98 0.96 0.96 0.96 0.95 0.95 0.94 0.92 0.92 0.92 0.90 0.86 0.82 0.78 0.77 0.76 0.75 0.73 0.72 0.72 0.69
0.24 0.28 0.22 0.23 0.24 0.21 0.16 0.16 0.16 0.18 0.17 0.18 0.18 0.16 0.17 0.16 0.18 0.17 0.18 0.19 0.18 0.16 0.15 0.13 0.14 0.16 0.21 0.31 0.34 0.37 0.41 0.45 0.50 0.50 0.64 0.69 0.73 0.72 0.77 0.81 0.82 0.87 0.92 0.96 0.99 1.02 1.04 1.07 1.11 1.12 1.12 1.12 1.13 1.13 1.12 1.10 1.08 1.08 1.07 1.04 1.04 1.03 1.02 1.00 0.98 0.96 0.94 0.94 0.92 0.90 0.89 0.90 0.90 0.90 0.90 0.88 0.86 0.82 0.80 0.78 0.75 0.73 0.73 0.71 0.67 0.66
0.26 0.26 0.22 0.23 0.21 0.18 0.17 0.18 0.19 0.20 0.19 0.18 0.17 0.15 0.16 0.15 0.15 0.13 0.14 0.19 0.18 0.18 0.17 0.15 0.14 0.18 0.24 0.31 0.42 0.43 0.44 0.44 0.50 0.67 0.70 0.81 0.82 0.78 0.84 0.88 0.89 0.91 0.95 0.98 1.00 1.00 1.01 1.04 1.08 1.10 1.09 1.10 1.10 1.09 1.06 1.06 1.06 1.03 1.00 0.98 0.98 0.98 0.98 0.96 0.96 0.95 0.93 0.92 0.91 0.89 0.89 0.89 0.89 0.89 0.88 0.86 0.85 0.83 0.81 0.76 0.73 0.73 0.71 0.66 0.66 0.63
0.30 0.27 0.28 0.23 0.22 0.20 0.20 0.21 0.21 0.22 0.21 0.19 0.19 0.18 0.18 0.17 0.17 0.15 0.12 0.14 0.17 0.19 0.21 0.21 0.17 0.16 0.35 0.32 0.37 0.46 0.48 0.48 0.48 0.64 0.75 0.81 0.86 0.83 0.89 0.93 0.96 0.97 0.96 0.98 0.98 0.99 1.01 1.03 1.05 1.06 1.05 1.05 1.06 1.05 1.04 1.03 1.01 0.99 0.98 0.98 0.98 0.95 0.95 0.95 0.95 0.95 0.94 0.93 0.92 0.90 0.89 0.88 0.87 0.87 0.87 0.86 0.85 0.82 0.79 0.76 0.74 0.71 0.66 0.65 0.61 0.58
0.32 0.27 0.26 0.26 0.25 0.25 0.24 0.23 0.20 0.21 0.20 0.19 0.19 0.20 0.18 0.16 0.16 0.17 0.17 0.19 0.19 0.19 0.19 0.22 0.19 0.27 0.32 0.38 0.44 0.49 0.52 0.51 0.52 0.63 0.78 0.79 0.82 0.83 0.84 0.90 0.93 0.93 0.96 0.98 1.01 1.01 1.01 1.01 1.04 1.04 1.02 1.02 1.02 1.02 1.01 1.02 1.01 1.00 0.99 0.98 0.97 0.96 0.97 0.97 0.96 0.95 0.94 0.93 0.92 0.92 0.91 0.88 0.87 0.85 0.85 0.83 0.83 0.81 0.81 0.79 0.76 0.72 0.66 0.61 0.57 0.53
0.26 0.28 0.27 0.22 0.21 0.21 0.21 0.21 0.18 0.19 0.19 0.18 0.17 0.18 0.19 0.18 0.18 0.19 0.21 0.21 0.18 0.19 0.20 0.20 0.18 0.29 0.42 0.42 0.49 0.51 0.54 0.51 0.53 0.72 0.76 0.84 0.89 0.87 0.86 0.91 0.94 0.92 0.92 0.93 0.95 0.97 0.97 0.96 0.97 0.98 0.99 1.00 1.01 1.00 0.99 0.99 0.99 0.97 0.96 0.97 0.98 1.00 1.03 1.02 1.01 0.99 0.98 0.95 0.93 0.93 0.93 0.92 0.90 0.86 0.84 0.84 0.84 0.82 0.80 0.77 0.73 0.70 0.65 0.61 0.57 0.54
0.29 0.28 0.28 0.22 0.18 0.16 0.14 0.14 0.12 0.13 0.15 0.17 0.19 0.18 0.19 0.19 0.18 0.18 0.18 0.20 0.18 0.21 0.22 0.20 0.18 0.38 0.46 0.49 0.49 0.49 0.52 0.51 0.53 0.69 0.78 0.82 0.84 0.83 0.85 0.87 0.90 0.91 0.87 0.89 0.92 0.94 0.92 0.93 0.96 0.97 0.98 1.00 1.00 0.99 0.97 0.96 0.96 0.96 0.96 0.97 1.00 1.01 1.03 1.01 1.00 0.99 0.98 0.99 0.97 0.96 0.95 0.94 0.93 0.89 0.87 0.86 0.84 0.81 0.78 0.75 0.71 0.65 0.61 0.57 0.52 0.49
0.29 0.30 0.28 0.26 0.22 0.19 0.19 0.19 0.20 0.19 0.19 0.18 0.19 0.18 0.18 0.19 0.20 0.19 0.19 0.19 0.18 0.20 0.20 0.22 0.22 0.35 0.39 0.44 0.47 0.53 0.51 0.52 0.68 0.67 0.77 0.79 0.85 0.87 0.88 0.86 0.88 0.89 0.87 0.88 0.90 0.93 0.93 0.92 0.92 0.95 0.99 1.00 1.00 0.99 0.96 0.95 0.96 0.96 0.95 0.95 0.98 0.99 0.98 0.96 0.96 0.97 0.97 0.96 0.95 0.91 0.90 0.89 0.87 0.85 0.84 0.82 0.81 0.79 0.76 0.72 0.68 0.64 0.60 0.57 0.52 0.48
0.29 0.28 0.28 0.26 0.25 0.24 0.23 0.22 0.24 0.21 0.18 0.18 0.19 0.18 0.19 0.19 0.21 0.20 0.19 0.18 0.21 0.21 0.18 0.22 0.36 0.31 0.39 0.42 0.46 0.51 0.56 0.71 0.74 0.79 0.77 0.84 0.86 0.88 0.87 0.89 0.91 0.90 0.88 0.89 0.91 0.90 0.88 0.90 0.92 0.94 0.96 0.98 0.99 0.99 0.96 0.97 0.99 0.98 0.98 0.95 0.95 0.96 0.95 0.93 0.92 0.92 0.92 0.92 0.91 0.91 0.90 0.88 0.84 0.82 0.80 0.79 0.77 0.76 0.73 0.70 0.66 0.62 0.60 0.57 0.53 0.50
0.28 0.26 0.28 0.27 0.25 0.26 0.26 0.24 0.24 0.22 0.20 0.19 0.19 0.19 0.19 0.19 0.20 0.19 0.20 0.20 0.20 0.19 0.20 0.26 0.43 0.39 0.41 0.44 0.46 0.66 0.71 0.69 0.80 0.80 0.86 0.88 0.90 0.89 0.87 0.86 0.87 0.87 0.90 0.88 0.88 0.90 0.88 0.88 0.89 0.91 0.94 0.97 0.98 0.97 0.97 0.97 0.99 1.01 1.02 1.00 0.97 0.95 0.94 0.94 0.91 0.88 0.88 0.88 0.87 0.88 0.88 0.87 0.85 0.83 0.81 0.78 0.75 0.72 0.68 0.64 0.61 0.59 0.57 0.55 0.53 0.51
0.28 0.26 0.28 0.27 0.26 0.24 0.25 0.24 0.24 0.23 0.21 0.20 0.20 0.22 0.22 0.20 0.19 0.19 0.20 0.21 0.22 0.22 0.24 0.27 0.40 0.36 0.37 0.44 0.62 0.64 0.73 0.75 0.77 0.85 0.86 0.85 0.85 0.89 0.87 0.85 0.86 0.87 0.86 0.86 0.85 0.85 0.89 0.90 0.90 0.91 0.93 0.95 0.97 1.00 0.99 0.97 0.96 0.97 0.97 0.97 0.95 0.92 0.95 0.96 0.93 0.89 0.87 0.86 0.84 0.83 0.82 0.81 0.81 0.79 0.76 0.72 0.69 0.66 0.64 0.61 0.58 0.57 0.55 0.53 0.52 0.51
0.28 0.26 0.27 0.26 0.25 0.24 0.26 0.24 0.22 0.23 0.22 0.19 0.20 0.21 0.22 0.22 0.20 0.20 0.20 0.22 0.24 0.23 0.24 0.25 0.31 0.30 0.37 0.46 0.65 0.71 0.73 0.77 0.77 0.80 0.80 0.82 0.85 0.87 0.87 0.85 0.85 0.86 0.87 0.85 0.86 0.86 0.87 0.90 0.92 0.92 0.92 0.95 0.98 0.99 0.99 0.96 0.95 0.97 0.97 0.94 0.91 0.91 0.93 0.93 0.92 0.89 0.86 0.82 0.81 0.81 0.80 0.79 0.77 0.75 0.71 0.69 0.65 0.63 0.61 0.59 0.57 0.56 0.53 0.52 0.51 0.49
0.29 0.28 0.27 0.25 0.22 0.23 0.26 0.23 0.23 0.23 0.23 0.22 0.22 0.22 0.22 0.23 0.21 0.20 0.20 0.23 0.22 0.22 0.25 0.25 0.25 0.28 0.39 0.55 0.67 0.74 0.73 0.68 0.70 0.73 0.77 0.80 0.83 0.84 0.81 0.82 0.84 0.85 0.86 0.86 0.85 0.85 0.87 0.88 0.90 0.90 0.92 0.97 1.00 1.02 1.00 1.00 1.01 0.99 0.95 0.91 0.90 0.91 0.92 0.92 0.90 0.87 0.84 0.81 0.78 0.77 0.76 0.75 0.73 0.69 0.66 0.65 0.62 0.59 0.56 0.55 0.54 0.52 0.52 0.51 0.49 0.50
0.28 0.27 0.24 0.24 0.22 0.23 0.26 0.26 0.24 0.23 0.22 0.19 0.19 0.22 0.22 0.23 0.24 0.25 0.23 0.24 0.24 0.26 0.25 0.24 0.25 0.30 0.42 0.58 0.61 0.66 0.66 0.66 0.70 0.73 0.75 0.78 0.81 0.82 0.81 0.82 0.85 0.85 0.85 0.87 0.85 0.83 0.84 0.85 0.88 0.90 0.94 0.98 1.00 1.02 1.03 1.04 1.01 0.97 0.93 0.89 0.91 0.91 0.91 0.90 0.87 0.84 0.81 0.78 0.76 0.74 0.73 0.72 0.69 0.66 0.64 0.61 0.59 0.57 0.55 0.54 0.52 0.51 0.50 0.48 0.49 0.50
0.30 0.29 0.24 0.26 0.22 0.24 0.27 0.26 0.28 0.24 0.18 0.18 0.24 0.25 0.23 0.22 0.24 0.24 0.23 0.24 0.25 0.27 0.28 0.29 0.28 0.32 0.48 0.47 0.48 0.56 0.61 0.65 0.68 0.77 0.79 0.72 0.70 0.73 0.78 0.80 0.82 0.84 0.86 0.87 0.88 0.86 0.85 0.87 0.89 0.92 0.94 1.01 1.01 1.02 1.06 1.06 1.02 0.96 0.93 0.92 0.92 0.91 0.89 0.87 0.85 0.82 0.77 0.74 0.72 0.71 0.71 0.70 0.67 0.64 0.62 0.60 0.58 0.56 0.53 0.50 0.47 0.46 0.46 0.45 0.48 0.49
0.29 0.27 0.25 0.28 0.25 0.24 0.27 0.27 0.23 0.19 0.20 0.33 0.40 0.34 0.30 0.29 0.26 0.24 0.26 0.27 0.27 0.29 0.29 0.30 0.32 0.32 0.50 0.50 0.59 0.62 0.71 0.77 0.78 0.75 0.74 0.75 0.73 0.69 0.71 0.74 0.77 0.81 0.85 0.87 0.85 0.84 0.86 0.87 0.90 0.91 0.99 1.04 1.05 1.06 1.07 1.06 1.02 0.96 0.92 0.92 0.90 0.90 0.87 0.85 0.82 0.78 0.74 0.71 0.69 0.69 0.68 0.66 0.64 0.61 0.60 0.58 0.56 0.53 0.50 0.48 0.47 0.46 0.47 0.49 0.49 0.49
0.28 0.25 0.25 0.23 0.25 0.25 0.25 0.24 0.18 0.19 0.34 0.36 0.43 0.41 0.41 0.37 0.36 0.31 0.25 0.26 0.27 0.27 0.29 0.30 0.32 0.32 0.45 0.49 0.60 0.67 0.75 0.80 0.77 0.76 0.76 0.76 0.75 0.70 0.72 0.72 0.74 0.78 0.81 0.85 0.84 0.85 0.87 0.89 0.90 0.93 0.96 1.02 1.03 1.03 1.01 0.99 1.00 0.97 0.93 0.93 0.89 0.87 0.85 0.82 0.79 0.75 0.72 0.69 0.68 0.66 0.64 0.62 0.61 0.59 0.57 0.55 0.52 0.48 0.47 0.48 0.47 0.47 0.49 0.49 0.49 0.49
0.29 0.27 0.25 0.23 0.25 0.20 0.22 0.24 0.23 0.34 0.32 0.32 0.34 0.35 0.34 0.30 0.30 0.28 0.25 0.24 0.27 0.29 0.31 0.30 0.30 0.32 0.49 0.45 0.48 0.60 0.70 0.76 0.71 0.70 0.76 0.76 0.73 0.75 0.81 0.77 0.78 0.79 0.82 0.86 0.88 0.89 0.93 0.95 0.96 0.99 1.00 0.99 0.99 0.99 0.98 0.98 0.99 0.97 0.96 0.90 0.86 0.84 0.81 0.79 0.74 0.71 0.69 0.66 0.64 0.64 0.63 0.61 0.59 0.56 0.54 0.52 0.48 0.46 0.47 0.50 0.52 0.51 0.52 0.49 0.49 0.46
0.31 0.26 0.27 0.24 0.22 0.25 0.23 0.22 0.23 0.22 0.20 0.25 0.32 0.38 0.40 0.37 0.34 0.34 0.30 0.29 0.29 0.30 0.30 0.30 0.31 0.32 0.54 0.52 0.49 0.56 0.65 0.59 0.55 0.61 0.71 0.75 0.72 0.75 0.80 0.83 0.84 0.84 0.85 0.87 0.90 0.92 0.93 0.96 0.99 0.99 0.96 0.94 0.94 0.97 0.96 0.97 0.96 0.96 0.89 0.85 0.82 0.79 0.76 0.72 0.69 0.68 0.66 0.65 0.64 0.63 0.61 0.60 0.56 0.52 0.50 0.47 0.46 0.47 0.50 0.54 0.54 0.53 0.53 0.51 0.48 0.44
0.30 0.30 0.30 0.25 0.24 0.23 0.23 0.22 0.22 0.20 0.23 0.29 0.32 0.39 0.40 0.39 0.37 0.38 0.29 0.24 0.31 0.33 0.33 0.32 0.30 0.31 0.32 0.49 0.48 0.54 0.51 0.45 0.48 0.58 0.71 0.74 0.73 0.73 0.74 0.78 0.81 0.83 0.86 0.88 0.88 0.89 0.93 0.94 0.94 0.94 0.93 0.90 0.88 0.93 0.97 0.92 0.88 0.85 0.80 0.77 0.75 0.73 0.70 0.68 0.68 0.67 0.65 0.64 0.63 0.62 0.60 0.56 0.51 0.48 0.46 0.45 0.47 0.51 0.52 0.53 0.54 0.54 0.54 0.52 0.50 0.47
0.27 0.26 0.27 0.25 0.24 0.23 0.22 0.21 0.22 0.24 0.27 0.35 0.36 0.40 0.42 0.42 0.41 0.34 0.21 0.19 0.29 0.32 0.34 0.33 0.30 0.33 0.33 0.34 0.54 0.54 0.47 0.43 0.46 0.57 0.71 0.75 0.74 0.73 0.73 0.73 0.76 0.79 0.83 0.88 0.91 0.94 0.95 0.95 0.92 0.89 0.87 0.86 0.89 0.94 0.91 0.86 0.82 0.77 0.73 0.72 0.71 0.69 0.67 0.66 0.66 0.66 0.65 0.64 0.61 0.57 0.54 0.50 0.47 0.46 0.49 0.53 0.56 0.54 0.51 0.50 0.49 0.48 0.47 0.45 0.44 0.42
0.27 0.24 0.25 0.24 0.24 0.24 0.22 0.22 0.25 0.30 0.37 0.43 0.44 0.49 0.48 0.48 0.41 0.25 0.18 0.27 0.46 0.49 0.36 0.35 0.34 0.36 0.36 0.40 0.53 0.49 0.54 0.55 0.56 0.61 0.71 0.78 0.73 0.72 0.73 0.77 0.77 0.80 0.81 0.83 0.87 0.92 0.91 0.92 0.90 0.88 0.88 0.89 0.90 0.90 0.87 0.81 0.77 0.73 0.71 0.70 0.68 0.67 0.66 0.67 0.66 0.64 0.62 0.57 0.53 0.51 0.49 0.49 0.50 0.55 0.58 0.55 0.52 0.50 0.49 0.49 0.48 0.47 0.45 0.42 0.40 0.37
0.27 0.26 0.24 0.25 0.23 0.23 0.23 0.21 0.23 0.31 0.42 0.47 0.49 0.48 0.51 0.43 0.30 0.26 0.45 0.52 0.56 0.47 0.42 0.37 0.34 0.36 0.38 0.57 0.57 0.56 0.60 0.62 0.62 0.69 0.72 0.74 0.73 0.72 0.71 0.74 0.76 0.79 0.84 0.87 0.88 0.89 0.89 0.90 0.90 0.89 0.88 0.89 0.88 0.85 0.81 0.77 0.73 0.70 0.69 0.68 0.67 0.66 0.66 0.65 0.62 0.58 0.54 0.51 0.50 0.50 0.52 0.57 0.60 0.57 0.51 0.47 0.45 0.43 0.43 0.45 0.46 0.45 0.43 0.39 0.38 0.38
0.27 0.24 0.23 0.22 0.24 0.24 0.24 0.20 0.19 0.18 0.38 0.48 0.50 0.49 0.51 0.35 0.41 0.56 0.58 0.61 0.58 0.58 0.56 0.43 0.39 0.37 0.37 0.37 0.48 0.52 0.58 0.65 0.67 0.73 0.74 0.76 0.74 0.68 0.66 0.69 0.68 0.71 0.75 0.79 0.83 0.89 0.90 0.89 0.88 0.87 0.86 0.86 0.83 0.79 0.76 0.73 0.69 0.68 0.68 0.65 0.64 0.63 0.62 0.58 0.55 0.52 0.52 0.53 0.55 0.58 0.59 0.56 0.51 0.47 0.45 0.42 0.41 0.40 0.41 0.41 0.42 0.41 0.39 0.37 0.36 0.36
0.34 0.24 0.24 0.24 0.25 0.21 0.21 0.20 0.21 0.30 0.46 0.58 0.49 0.42 0.49 0.51 0.60 0.60 0.59 0.55 0.60 0.62 0.57 0.56 0.47 0.42 0.40 0.36 0.38 0.45 0.62 0.65 0.67 0.71 0.71 0.73 0.74 0.72 0.69 0.71 0.72 0.75 0.79 0.83 0.86 0.87 0.89 0.88 0.87 0.86 0.84 0.83 0.80 0.77 0.76 0.73 0.69 0.67 0.64 0.60 0.60 0.58 0.56 0.54 0.53 0.55 0.55 0.57 0.58 0.56 0.50 0.46 0.44 0.42 0.41 0.40 0.39 0.38 0.36 0.37 0.37 0.36 0.36 0.36 0.36 0.36
0.33 0.29 0.29 0.25 0.27 0.24 0.26 0.35 0.43 0.49 0.55 0.55 0.53 0.58 0.57 0.60 0.60 0.65 0.65 0.61 0.61 0.60 0.58 0.61 0.57 0.58 0.53 0.41 0.54 0.67 0.68 0.70 0.69 0.72 0.66 0.68 0.69 0.67 0.63 0.65 0.67 0.72 0.77 0.80 0.83 0.87 0.88 0.86 0.84 0.82 0.81 0.80 0.79 0.78 0.75 0.72 0.68 0.64 0.59 0.58 0.58 0.57 0.55 0.55 0.57 0.58 0.58 0.55 0.51 0.46 0.44 0.42 0.39 0.37 0.36 0.36 0.36 0.36 0.37 0.38 0.38 0.36 0.37 0.37 0.35 0.34
0.39 0.34 0.44 0.35 0.34 0.34 0.42 0.49 0.54 0.52 0.54 0.57 0.54 0.61 0.61 0.61 0.60 0.64 0.61 0.61 0.64 0.63 0.66 0.68 0.70 0.69 0.71 0.74 0.71 0.71 0.71 0.72 0.70 0.72 0.72 0.71 0.69 0.66 0.66 0.68 0.72 0.76 0.80 0.83 0.84 0.85 0.85 0.85 0.82 0.80 0.79 0.79 0.79 0.77 0.74 0.73 0.68 0.61 0.59 0.61 0.60 0.57 0.58 0.59 0.59 0.56 0.50 0.47 0.43 0.41 0.39 0.37 0.36 0.35 0.35 0.35 0.36 0.36 0.36 0.34 0.33 0.32 0.32 0.32 0.31 0.30
0.46 0.42 0.37 0.35 0.42 0.32 0.29 0.37 0.42 0.45 0.52 0.54 0.60 0.62 0.68 0.59 0.63 0.61 0.58 0.61 0.64 0.62 0.71 0.75 0.73 0.74 0.75 0.78 0.74 0.71 0.72 0.73 0.70 0.70 0.70 0.69 0.67 0.65 0.65 0.67 0.69 0.72 0.76 0.79 0.83 0.83 0.81 0.78 0.75 0.75 0.77 0.76 0.76 0.75 0.73 0.71 0.67 0.63 0.62 0.60 0.59 0.60 0.60 0.57 0.51 0.47 0.43 0.40 0.39 0.38 0.37 0.34 0.33 0.34 0.36 0.38 0.39 0.38 0.37 0.35 0.33 0.31 0.30 0.29 0.28 0.28
0.35 0.47 0.41 0.39 0.38 0.34 0.32 0.40 0.44 0.52 0.53 0.57 0.56 0.58 0.52 0.59 0.58 0.56 0.60 0.63 0.63 0.66 0.67 0.71 0.74 0.72 0.76 0.74 0.76 0.74 0.74 0.72 0.70 0.66 0.67 0.66 0.65 0.64 0.65 0.67 0.68 0.71 0.78 0.83 0.83 0.82 0.79 0.76 0.75 0.76 0.77 0.76 0.75 0.75 0.72 0.69 0.67 0.65 0.62 0.60 0.61 0.60 0.54 0.48 0.44 0.42 0.40 0.40 0.39 0.38 0.37 0.36 0.36 0.37 0.37 0.38 0.38 0.37 0.36 0.37 0.37 0.34 0.31 0.30 0.30 0.28
0.50 0.45 0.36 0.40 0.36 0.39 0.42 0.43 0.55 0.61 0.61 0.54 0.54 0.53 0.60 0.63 0.62 0.53 0.62 0.62 0.65 0.65 0.67 0.70 0.74 0.69 0.69 0.68 0.70 0.73 0.70 0.68 0.69 0.67 0.65 0.66 0.65 0.64 0.65 0.69 0.71 0.73 0.77 0.77 0.78 0.78 0.77 0.77 0.78 0.79 0.78 0.76 0.75 0.73 0.71 0.69 0.67 0.64 0.63 0.62 0.60 0.53 0.47 0.43 0.42 0.41 0.41 0.41 0.39 0.37 0.37 0.35 0.37 0.39 0.39 0.37 0.36 0.36 0.36 0.34 0.34 0.33 0.31 0.32 0.33 0.32
0.50 0.43 0.48 0.41 0.33 0.33 0.41 0.49 0.54 0.42 0.44 0.54 0.60 0.61 0.65 0.66 0.63 0.60 0.58 0.64 0.64 0.64 0.63 0.67 0.68 0.72 0.72 0.71 0.72 0.75 0.69 0.67 0.70 0.69 0.66 0.66 0.65 0.65 0.66 0.67 0.71 0.74 0.76 0.78 0.80 0.80 0.80 0.81 0.81 0.79 0.76 0.74 0.73 0.71 0.70 0.68 0.65 0.64 0.62 0.60 0.54 0.49 0.45 0.42 0.42 0.41 0.40 0.39 0.37 0.35 0.34 0.36 0.37 0.38 0.38 0.36 0.33 0.31 0.29 0.29 0.29 0.30 0.28 0.26 0.27 0.28
0.48 0.50 0.46 0.43 0.43 0.42 0.51 0.64 0.63 0.59 0.55 0.59 0.69 0.70 0.66 0.67 0.66 0.61 0.63 0.64 0.65 0.64 0.67 0.64 0.67 0.68 0.71 0.72 0.75 0.75 0.71 0.70 0.69 0.69 0.67 0.65 0.65 0.66 0.67 0.67 0.70 0.73 0.75 0.78 0.78 0.78 0.79 0.80 0.80 0.78 0.75 0.73 0.73 0.71 0.70 0.66 0.64 0.61 0.59 0.57 0.52 0.48 0.44 0.43 0.41 0.39 0.37 0.37 0.35 0.33 0.36 0.38 0.39 0.40 0.39 0.34 0.30 0.26 0.22 0.19 0.19 0.19 0.19 0.17 0.16 0.16
Wind_Speed
32 31 33 34 34 35 35 35 32 29 27 26 26 25 26 26 24 25 24 22 24 24 25 26 24 23 22 22 21 19 18 17 17 17 17 18 18 18 19 18 18 18 18 18 18 18 18 17 16 15 15 14 14 13 13 13 13 13 14 13 13 13 13 13 13 13 14 13 13 12 12 12 11 10 10 10 9 9 8 7 5 4 3 4 4 5
32 33 34 34 33 34 35 34 31 31 30 27 25 25 25 26 25 24 24 24 23 22 22 25 25 23 22 22 21 21 19 18 17 17 17 17 17 18 19 18 18 17 18 19 18 18 18 17 17 16 15 14 13 13 14 13 14 14 13 13 13 13 13 13 13 14 14 13 13 12 12 11 10 10 10 9 9 9 8 6 4 3 4 4 5 5
33 34 34 34 33 33 34 33 32 32 32 28 24 24 24 26 25 23 24 26 24 20 19 23 24 21 21 21 20 20 20 18 18 16 15 16 18 18 18 19 18 18 19 19 19 18 18 17 17 17 16 15 13 13 14 14 14 14 13 13 13 13 13 13 14 13 12 12 12 12 12 11 10 10 9 9 8 8 7 5 4 4 4 5 6 6
32 33 33 33 33 33 32 33 33 31 31 29 25 23 22 24 26 24 23 25 25 21 18 21 20 17 18 20 19 19 18 17 17 16 15 16 17 17 18 19 18 18 19 19 19 18 18 17 17 18 17 15 14 13 14 14 14 14 14 14 13 13 13 13 13 12 12 12 12 12 11 10 10 9 8 8 7 7 6 5 5 5 5 6 7 7
31 31 32 33 33 34 32 32 33 30 29 30 28 25 21 22 26 25 22 23 24 22 19 19 18 17 19 20 19 18 17 16 16 16 15 15 16 16 17 18 17 17 18 18 18 19 18 18 17 18 17 15 14 14 14 14 14 14 14 14 14 13 13 13 13 12 12 12 12 12 11 10 10 9 8 8 7 6 5 5 5 6 6 6 7 8
30 30 31 33 33 34 33 31 32 31 29 29 30 28 23 20 25 26 23 22 23 22 22 22 19 18 22 22 20 20 18 17 16 15 16 16 17 17 17 17 17 16 17 16 16 17 18 18 17 17 17 15 14 14 14 14 13 13 13 13 13 12 13 13 13 12 12 12 12 12 11 10 9 9 9 8 7 6 5 5 6 6 6 7 7 7
28 30 32 33 33 34 33 31 32 32 29 28 29 30 26 21 23 26 24 22 22 21 21 25 23 18 20 22 22 21 19 18 17 16 16 17 17 18 17 17 17 16 15 15 15 15 16 17 17 16 16 15 14 14 13 13 13 13 13 13 12 12 12 13 12 12 12 12 12 11 11 10 10 9 9 7 6 5 5 6 6 7 7 7 7 7
29 31 32 33 33 33 33 31 31 33 30 27 28 30 29 23 22 25 24 22 20 20 20 25 27 21 20 22 22 22 21 19 19 18 17 18 18 18 18 18 18 17 15 15 15 15 15 15 16 15 15 15 15 14 13 13 13 13 12 12 12 12 12 12 12 12 12 12 12 11 10 10 9 9 8 6 6 6 6 6 7 7 7 7 7 8
29 31 32 33 33 31 32 32 31 32 31 27 26 30 30 25 22 23 24 22 20 19 20 24 28 25 21 22 22 22 22 21 20 19 18 19 19 18 18 18 18 17 16 16 16 16 15 15 14 14 14 14 14 13 13 13 12 11 11 11 12 12 12 12 12 13 13 12 11 11 10 9 8 7 6 6 6 6 6 6 7 7 7 7 7 8
28 30 31 32 32 30 30 32 30 31 31 27 25 28 29 26 23 21 21 22 21 19 20 23 27 26 21 22 24 22 21 21 20 19 19 20 20 19 19 19 18 18 17 16 15 15 15 14 13 13 13 13 12 13 13 12 11 10 9 10 10 12 12 12 12 13 13 12 11 11 10 8 7 7 6 6 6 6 6 7 7 7 7 7 8 8
27 28 28 29 30 29 29 31 30 30 31 29 25 24 27 27 24 22 19 20 22 21 22 24 26 26 22 20 25 24 22 21 19 19 20 20 21 21 20 20 19 18 17 15 14 14 14 14 13 13 12 12 12 13 12 12 10 9 8 8 9 10 12 13 13 13 12 12 11 10 8 7 7 6 6 6 6 6 7 7 7 7 7 8 8 8
27 28 27 27 30 29 28 30 30 29 31 30 25 21 23 25 25 23 20 19 21 21 24 26 25 25 22 20 23 23 22 22 20 20 21 21 21 22 21 20 20 19 17 15 15 14 14 14 13 13 12 12 12 12 12 12 11 10 8 8 8 10 11 12 13 12 12 11 10 9 8 7 6 6 7 7 7 7 7 7 7 7 7 8 8 9
26 28 28 27 30 31 29 29 29 28 30 31 27 23 23 23 24 24 22 21 21 20 21 24 24 24 22 21 23 22 22 23 21 20 21 22 22 22 21 20 19 19 18 16 15 15 14 14 13 13 13 13 13 12 11 12 11 10 9 8 8 10 11 12 11 12 11 10 9 9 9 8 7 7 7 7 7 7 7 7 7 7 7 8 8 9
24 26 29 28 28 30 30 28 29 28 30 32 30 26 24 23 23 25 24 22 22 19 18 21 23 23 21 20 23 24 23 23 23 21 21 22 22 22 21 20 19 18 18 16 16 15 15 14 13 13 13 13 13 12 12 11 11 9 8 8 9 9 10 11 11 11 11 10 9 9 9 9 9 8 8 8 7 7 7 7 7 7 7 8 8 8
26 25 29 30 28 30 30 28 28 28 29 31 29 27 25 24 23 24 24 23 22 20 20 20 19 21 21 18 20 23 23 23 23 22 21 20 20 20 20 20 19 18 17 16 16 16 16 15 14 14 14 14 13 12 12 11 10 9 8 9 9 9 9 10 11 11 10 9 9 9 9 9 9 9 9 8 8 8 7 7 7 7 8 8 8 8
27 24 27 29 27 29 31 28 28 27 27 29 28 27 27 25 23 22 23 21 19 18 20 20 17 17 18 16 17 20 21 22 23 22 22 20 19 19 19 19 19 18 17 17 17 18 17 16 16 15 14 14 12 11 11 11 10 9 9 9 9 9 9 10 11 11 10 10 10 9 9 9 9 9 9 9 8 8 8 7 7 7 7 8 8 9
25 23 26 29 27 30 32 29 27 27 27 27 28 29 28 26 22 20 21 19 16 17 19 21 20 17 15 15 18 20 21 21 23 23 22 21 21 20 18 18 18 18 17 17 18 18 17 17 16 16 15 14 13 12 11 10 9 9 9 10 10 9 10 10 11 11 10 10 10 9 9 9 9 9 9 9 8 8 8 7 7 7 7 8 9 9
22 20 24 28 28 29 31 30 28 28 27 27 29 29 26 24 21 19 19 18 18 19 19 21 24 21 18 16 17 21 22 22 23 23 22 21 21 19 18 18 18 18 18 17 18 18 17 17 17 16 15 14 13 12 12 11 10 9 9 10 10 10 10 10 11 11 10 10 10 9 9 9 9 9 8 8 8 8 8 8 8 8 8 8 9 9
21 18 20 27 27 27 30 29 26 27 29 28 26 26 25 23 22 21 19 18 20 21 19 22 25 23 22 20 19 22 23 22 23 23 22 22 21 19 18 19 18 18 18 17 18 18 17 17 17 16 15 14 13 12 12 11 10 10 10 10 10 10 11 10 10 10 10 10 10 10 9 9 9 8 8 8 8 8 8 8 8 8 8 9 9 10
22 18 18 24 26 25 28 29 27 27 30 29 24 25 26 24 23 22 20 18 19 19 20 22 22 22 22 22 23 24 23 23 24 22 22 23 22 19 19 19 18 18 18 18 17 17 17 17 17 16 15 14 13 13 12 12 11 10 10 10 10 10 10 10 10 10 10 10 10 10 9 9 9 9 9 8 8 9 8 8 8 8 9 9 10 10
22 18 18 22 25 26 27 29 29 27 29 29 26 26 28 26 24 23 22 20 18 17 19 20 20 21 21 20 22 25 25 24 23 21 21 22 21 19 20 19 19 18 18 18 18 17 17 18 17 17 15 14 14 13 13 12 11 11 11 10 10 10 10 10 10 10 10 10 10 10 10 10 9 9 9 9 9 9 9 9 9 9 9 10 10 11
22 20 19 22 24 26 27 28 29 26 26 28 26 25 27 27 25 23 23 23 20 17 17 19 20 20 19 19 20 22 23 23 22 21 22 23 22 19 19 20 19 19 19 18 18 18 18 18 18 17 15 15 15 14 13 12 12 11 11 11 10 10 10 10 10 10 10 10 10 10 10 10 10 10 10 10 10 9 9 10 10 10 10 10 11 11
21 20 21 22 23 24 25 27 28 27 26 27 26 23 24 27 27 23 22 22 21 19 17 18 18 17 16 17 18 20 22 22 23 23 23 24 22 21 21 21 20 20 19 19 19 19 18 18 18 17 16 16 16 15 14 13 13 12 11 11 10 10 10 10 11 11 11 11 11 10 10 11 11 11 11 10 10 10 10 10 10 11 11 11 11 11
20 20 21 21 21 21 22 25 27 27 26 27 28 26 23 26 28 25 22 21 20 20 18 16 15 15 16 17 18 19 20 21 22 23 24 23 22 21 22 22 21 21 21 20 20 19 19 19 18 17 17 17 16 15 14 14 14 13 12 11 10 10 10 10 11 11 11 11 11 11 11 11 11 12 12 11 11 11 11 11 11 11 11 11 11 12
20 20 22 21 20 21 21 23 27 29 29 27 28 29 26 26 28 26 22 20 20 21 21 18 15 14 15 17 18 19 20 20 20 21 23 23 22 21 22 22 21 22 21 21 21 21 20 19 19 18 18 18 17 16 16 15 15 13 12 11 10 10 11 11 11 11 11 11 11 11 11 11 12 12 12 12 12 12 11 11 11 11 11 12 12 12
21 21 22 21 21 22 22 24 27 29 28 26 27 30 29 27 27 26 23 21 20 21 21 20 16 14 15 15 17 20 22 20 19 20 21 22 21 20 21 22 22 22 22 22 22 22 21 20 19 19 18 18 18 17 16 16 15 14 13 12 11 10 11 11 11 10 10 10 10 10 10 11 11 12 12 12 12 11 11 11 11 11 11 12 12 12
21 20 23 23 21 21 21 22 24 25 26 25 26 30 30 29 27 24 23 23 21 20 21 20 17 15 16 16 17 19 20 19 18 20 21 20 20 19 20 21 22 22 22 22 22 22 21 21 20 20 19 19 19 18 17 16 15 15 14 13 11 11 11 11 11 10 9 9 9 9 9 9 10 11 11 11 11 11 11 11 11 11 11 12 12 12
20 19 23 24 21 19 20 20 22 25 26 26 26 27 28 30 29 25 24 25 23 20 19 18 17 16 17 18 18 17 17 18 19 20 20 19 19 19 19 21 21 22 22 23 23 23 22 22 21 21 20 20 20 19 17 16 16 15 14 13 12 11 11 11 11 10 9 9 9 9 9 9 10 10 10 10 11 11 11 11 11 11 11 12 12 12
20 19 21 23 20 18 19 20 22 24 25 25 26 26 26 28 31 29 26 25 24 22 19 16 15 17 18 18 18 16 16 17 17 18 18 18 18 19 20 21 21 22 23 23 23 24 23 23 22 21 21 21 20 20 18 17 16 15 15 14 13 12 12 11 11 10 10 10 10 10 10 10 10 10 10 10 10 11 11 11 11 11 11 12 12 13
21 19 20 20 19 18 18 18 20 22 24 25 26 26 25 27 30 31 27 24 24 25 22 17 15 16 18 18 18 18 18 18 17 16 17 17 17 19 20 21 21 22 23 23 23 24 24 24 23 22 22 21 21 20 19 18 17 16 15 14 14 13 12 12 11 11 10 10 10 10 10 10 10 10 10 10 10 10 11 11 11 11 12 12 12 13
20 19 19 19 18 18 18 18 19 20 21 24 25 25 25 26 28 30 28 25 24 24 24 21 17 16 17 17 18 19 19 19 18 19 19 18 18 19 20 21 21 22 23 24 23 24 25 24 23 23 22 21 21 21 19 19 18 16 15 15 15 14 13 12 12 11 11 10 10 10 10 10 9 9 10 10 10 10 11 11 11 11 12 12 12 13
19 17 18 19 18 18 18 18 18 20 21 23 25 26 27 26 25 27 28 27 26 24 23 24 21 17 16 16 17 18 18 19 19 20 20 21 21 21 21 21 22 22 23 24 24 24 24 24 23 23 22 22 22 21 20 20 19 17 16 16 15 14 13 13 12 11 11 11 10 10 9 9 9 9 9 9 10 10 10 11 11 11 11 11 12 12
19 17 17 19 19 18 20 19 15 16 19 21 23 24 25 26 25 25 27 28 28 25 23 23 22 19 17 18 17 17 18 19 20 20 20 21 22 22 22 22 23 23 23 24 24 24 24 24 23 22 22 23 22 21 20 20 18 17 17 16 15 14 13 13 12 11 11 11 11 10 9 9 9 9 9 9 10 10 10 11 11 11 11 11 12 12
19 17 17 19 18 18 20 19 14 16 18 18 18 20 22 24 26 27 27 26 27 26 24 23 22 19 19 20 20 19 18 18 19 19 20 20 21 21 21 22 22 22 23 24 24 23 23 23 22 22 23 23 22 20 19 19 18 17 17 16 16 15 14 13 12 11 11 11 10 10 9 9 9 9 10 10 10 11 11 11 11 11 11 11 12 12
18 17 16 17 17 16 18 18 17 18 18 14 14 18 19 20 22 26 27 27 27 27 26 26 24 21 20 20 20 18 18 19 19 19 19 20 20 20 20 21 21 21 22 23 23 23 24 24 23 23 23 22 21 20 19 19 19 18 18 18 16 15 14 13 12 12 11 11 10 10 9 9 9 10 10 11 11 11 11 11 11 11 11 12 12 12
18 16 16 16 16 15 16 18 17 16 16 15 14 16 18 19 19 21 25 27 28 27 26 27 26 24 22 22 20 18 18 19 19 19 20 20 20 20 20 20 21 21 22 23 23 23 24 25 24 24 23 22 21 20 19 19 20 20 20 19 17 15 14 13 12 12 11 11 10 10 9 9 10 10 10 11 11 10 10 11 11 11 11 11 10 11
18 16 15 16 16 15 16 18 17 14 14 16 16 16 18 21 20 18 19 24 26 26 25 25 26 25 24 24 23 20 20 20 19 19 20 20 19 19 19 19 20 21 21 22 23 24 25 25 24 24 22 22 21 20 19 19 19 20 20 19 17 15 14 12 12 12 11 10 10 9 9 10 10 10 10 10 10 9 9 9 10 9 9 9 9 10
19 16 15 16 15 15 15 16 17 16 15 15 17 17 18 20 21 19 18 20 23 24 24 25 26 25 24 24 24 23 21 21 21 20 20 20 20 19 19 20 20 21 21 22 22 23 24 24 24 23 22 22 21 20 19 18 17 17 18 18 16 15 13 12 12 12 11 10 9 9 10 10 10 10 10 9 9 9 9 9 9 9 9 9 10 10
19 16 15 15 14 15 15 15 16 16 14 12 14 17 17 18 18 18 19 21 22 23 24 24 25 26 25 24 23 23 22 21 21 21 21 21 20 19 19 20 21 21 22 22 23 24 24 24 23 23 22 21 20 20 18 18 17 16 16 16 15 14 13 12 12 11 11 10 10 10 10 10 9 9 9 9 9 9 9 9 9 9 10 10 10 10
18 17 15 15 15 15 15 14 14 13 12 11 12 14 16 16 16 17 19 20 21 23 25 24 23 24 25 24 23 22 21 21 21 21 21 21 21 20 20 21 21 22 22 23 23 24 24 24 23 23 22 21 20 20 19 18 18 17 16 15 14 13 13 13 12 12 12 11 11 10 10 9 9 9 9 9 9 8 8 8 9 9 10 10 10 10
17 17 16 16 15 15 15 15 13 12 11 11 12 13 14 15 16 18 18 16 17 21 25 26 25 23 23 23 23 23 23 22 21 21 22 21 21 21 22 22 21 22 23 23 23 23 23 23 23 22 22 21 21 21 20 19 18 17 15 14 13 13 14 14 13 13 12 11 11 11 10 9 9 9 9 9 9 8 8 8 8 9 9 10 10 10
16 16 16 16 15 15 15 15 14 12 12 12 13 13 14 15 15 16 16 14 15 17 21 25 27 26 23 23 24 24 23 22 22 23 23 22 21 22 22 22 22 22 23 24 24 24 23 23 22 22 22 22 22 22 21 19 18 16 15 14 14 14 14 13 13 12 12 11 11 10 10 10 10 10 9 9 9 8 8 8 8 9 9 9 9 10
15 16 16 16 16 14 14 15 14 12 12 13 13 13 14 14 13 14 14 14 14 14 16 19 23 25 25 25 25 24 23 23 23 23 23 23 23 22 22 23 22 22 23 24 24 24 24 23 23 23 23 23 22 21 20 19 18 16 16 16 15 14 14 13 12 12 11 11 11 11 11 10 10 10 9 9 9 8 7 8 8 8 8 8 9 10
15 15 14 14 15 15 14 14 13 11 12 13 12 12 13 13 12 12 13 13 13 13 14 16 17 20 23 25 25 23 23 23 24 24 24 24 24 23 22 22 22 22 23 24 24 24 24 23 23 23 23 23 22 20 20 19 18 17 16 16 15 14 14 13 12 12 11 11 12 11 11 10 10 9 9 9 8 7 7 8 8 8 8 9 9 10
15 15 13 12 14 14 12 12 11 10 12 12 11 10 11 12 12 12 12 12 13 12 13 14 15 15 18 21 22 22 23 23 23 24 24 25 24 23 23 23 23 23 24 25 25 25 24 24 24 23 23 22 22 21 20 20 18 17 16 16 15 15 14 13 12 12 12 12 12 11 11 10 10 9 9 8 8 7 7 8 8 9 9 9 9 10
14 15 13 11 12 13 12 11 11 11 12 12 10 10 10 11 12 13 12 12 12 12 12 13 14 14 15 17 20 22 23 22 22 23 24 24 25 24 23 23 24 24 25 25 25 25 24 24 24 23 22 22 22 21 20 19 18 17 17 16 16 15 14 13 13 13 12 12 12 11 11 10 9 9 8 8 8 8 8 8 8 8 8 8 9 9
13 14 14 13 13 13 12 12 13 13 14 13 11 11 11 11 12 13 14 13 13 12 12 13 14 16 17 17 18 20 22 22 22 22 23 24 24 24 23 24 24 25 26 26 26 25 25 24 24 23 23 22 21 20 20 19 18 18 17 17 16 15 14 14 13 13 12 12 12 11 11 10 9 9 8 8 8 8 8 8 7 8 8 8 9 9
12 13 14 14 15 14 12 11 11 12 14 14 13 13 12 11 11 12 13 14 13 13 13 12 14 16 17 18 19 20 20 21 22 22 23 24 24 23 23 24 25 25 26 27 26 26 26 25 24 24 23 22 21 20 19 18 18 19 18 17 15 15 14 14 13 13 12 12 12 11 11 10 10 9 8 8 8 7 7 7 7 7 7 8 8 9
11 12 12 13 15 14 13 12 11 11 13 14 14 12 11 11 11 11 13 14 14 13 13 13 14 15 15 17 18 19 19 20 21 22 22 23 23 23 23 24 25 25 26 27 27 26 26 26 25 24 23 22 21 20 19 18 19 19 18 16 16 15 15 14 13 13 12 12 12 12 11 11 10 9 8 7 7 7 7 7 7 8 8 8 8 8
11 11 11 11 13 13 12 12 12 12 13 13 12 11 11 11 11 12 13 14 14 14 14 14 14 14 14 14 16 18 18 19 20 21 22 23 23 23 23 24 24 26 27 28 27 26 26 25 25 24 23 22 21 20 19 19 19 18 17 16 16 15 14 14 13 13 13 13 12 12 12 11 10 9 8 8 8 7 7 6 7 7 7 8 8 8
11 12 12 11 12 11 11 11 12 12 13 13 12 12 11 12 12 12 13 13 13 14 15 14 14 14 13 13 15 16 17 18 19 20 21 22 23 23 23 24 25 26 27 28 27 27 26 25 25 24 23 22 21 20 19 19 19 18 17 16 16 15 15 14 14 13 13 13 13 13 12 11 10 9 9 9 9 8 7 6 6 6 6 7 7 8
Wind_Direction
209 212 214 214 214 212 213 214 216 216 217 217 217 219 220 223 225 222 222 218 211 217 224 225 224 224 225 223 221 220 220 221 225 229 233 231 225 220 218 219 217 216 216 218 219 218 217 217 216 214 214 217 221 222 219 219 219 221 224 224 226 231 235 234 233 232 232 233 234 233 236 237 233 226 223 224 225 227 226 221 225 242 257 269 281 289
210 215 215 214 213 213 213 214 215 216 219 221 219 220 219 221 224 221 219 218 213 218 223 221 224 225 222 221 222 221 222 224 224 227 228 226 223 219 214 213 214 213 216 218 217 217 217 215 215 216 217 218 220 220 220 220 221 225 228 227 228 233 235 233 231 234 236 234 232 231 233 232 229 228 227 228 228 229 229 229 242 259 269 279 287 292
212 217 215 212 212 213 212 213 214 215 218 221 220 221 221 219 221 222 219 218 216 219 221 217 221 225 217 215 219 218 222 224 222 224 221 217 217 216 212 212 212 212 213 215 214 214 214 213 214 217 218 220 223 223 224 224 224 229 231 230 232 233 235 234 231 232 230 226 225 224 225 224 225 227 229 232 231 227 228 238 256 269 276 283 288 293
213 216 212 210 211 211 211 211 213 214 215 219 221 221 221 216 216 219 217 216 214 216 218 214 214 216 211 211 215 215 217 221 220 219 218 215 213 214 213 211 211 213 212 212 212 211 210 210 213 216 218 222 227 229 229 229 229 231 231 229 232 233 233 233 230 227 222 218 218 216 217 219 220 222 223 220 215 217 232 252 265 274 281 285 290 295
214 213 210 209 210 209 210 210 210 212 212 215 219 219 219 216 213 214 214 210 210 213 216 213 210 210 210 210 215 216 215 218 220 216 217 216 213 214 213 208 210 215 214 212 210 208 210 212 214 216 217 220 227 231 231 230 229 229 227 228 232 232 230 231 227 223 220 218 216 212 212 213 213 216 212 203 207 224 247 261 269 278 284 288 292 296
213 210 207 208 209 208 210 209 208 209 210 213 217 217 217 215 209 212 215 209 209 216 215 215 218 214 211 211 213 217 217 219 222 218 215 212 209 211 209 207 211 216 215 210 206 207 211 214 215 216 217 220 225 228 228 227 225 223 223 225 228 229 227 226 223 220 217 214 210 207 208 208 209 212 207 207 223 242 254 264 272 279 286 292 294 298
212 208 206 207 207 206 208 210 208 207 210 213 214 214 216 215 208 210 213 207 211 221 217 217 223 219 214 214 214 217 219 218 221 221 215 210 208 208 208 210 212 212 210 204 201 204 207 209 211 213 216 219 222 222 222 222 220 219 221 223 225 226 224 221 218 215 213 210 206 205 206 209 210 208 208 218 236 248 256 266 274 279 285 294 298 300
209 206 205 205 205 205 207 209 207 205 209 212 210 210 214 217 214 211 208 205 214 225 221 218 222 222 219 218 217 218 218 217 218 221 218 209 206 207 208 208 207 204 201 199 200 202 203 204 204 208 212 215 216 216 216 216 216 219 222 223 224 223 220 217 212 209 208 207 206 207 206 205 204 205 214 230 242 251 259 266 274 279 285 293 299 302
206 205 203 203 204 206 207 208 206 204 207 211 208 208 212 217 220 216 212 214 219 223 223 219 219 222 223 218 216 215 213 214 216 219 219 210 205 206 206 204 201 199 197 196 198 200 201 201 201 204 208 209 210 211 211 211 212 216 219 221 222 221 217 212 207 204 204 203 203 202 197 195 202 215 228 238 244 253 260 265 274 281 288 294 298 301
205 206 203 202 205 206 206 206 206 204 206 209 207 207 211 217 220 218 221 224 221 220 224 219 214 221 226 214 211 214 211 214 219 220 218 210 204 206 205 202 198 197 196 194 196 198 198 198 200 202 203 204 206 205 204 205 206 209 211 213 214 213 211 206 200 197 196 196 195 193 193 202 219 231 237 240 245 253 260 266 273 280 287 292 297 301
203 204 205 203 205 206 204 204 205 204 204 206 207 205 208 214 215 215 225 225 218 221 225 220 214 218 225 215 211 218 218 217 219 217 214 209 204 204 204 201 197 196 197 196 197 196 195 195 197 198 197 197 199 199 199 198 198 200 202 202 199 199 199 195 192 189 188 189 190 194 204 221 234 236 236 240 245 253 261 267 274 282 287 292 295 299
199 201 205 203 203 204 202 203 204 205 203 203 206 205 203 208 210 213 222 219 215 221 221 221 219 217 222 221 215 218 219 216 215 212 210 207 202 202 204 201 197 196 198 197 197 195 195 196 195 195 194 192 191 192 193 193 194 198 200 196 189 186 186 186 187 188 190 193 198 209 223 232 235 233 235 240 246 254 262 268 276 284 289 292 294 297
199 200 202 200 200 201 200 199 201 203 201 201 206 205 201 202 205 210 215 214 217 222 218 218 220 221 223 220 215 216 216 213 212 211 209 207 202 201 201 199 197 198 198 197 196 197 199 199 196 195 194 191 190 188 188 190 195 201 201 194 183 179 182 185 190 196 200 207 215 224 229 229 231 233 237 244 250 257 263 269 276 281 285 290 294 299
196 196 197 198 199 200 199 197 198 200 199 201 205 205 201 200 203 207 211 214 218 222 222 219 220 224 224 217 215 218 216 212 212 211 207 204 204 201 197 196 196 197 197 197 198 200 202 200 198 197 194 192 191 189 189 192 196 199 197 193 185 183 190 195 199 206 211 218 224 227 226 227 230 235 240 245 250 256 261 267 273 277 281 287 294 301
195 195 198 200 199 199 200 200 200 200 199 200 204 204 204 205 206 208 210 214 217 220 223 223 222 221 223 222 217 215 214 212 210 207 203 200 199 197 195 195 196 197 199 200 201 203 204 200 198 198 196 193 191 190 192 195 197 198 195 193 192 193 199 202 205 210 214 219 223 224 225 227 231 235 239 243 248 253 259 266 272 276 281 287 295 300
197 200 201 202 202 200 201 203 202 200 199 200 203 204 206 207 207 210 213 215 220 224 222 222 222 220 223 225 214 208 210 209 204 202 201 198 193 194 197 198 198 200 201 199 200 203 203 199 198 199 198 195 194 195 198 199 200 200 199 199 198 199 203 206 210 214 217 220 221 221 224 228 232 234 238 242 247 252 258 265 271 276 283 289 296 300
196 202 201 200 203 201 201 203 202 199 198 198 202 205 206 207 207 210 213 215 221 227 221 217 218 216 217 217 209 206 207 205 203 202 200 195 191 196 202 201 199 201 200 198 200 202 202 200 200 201 200 199 200 201 201 201 201 201 202 201 201 203 205 208 211 214 216 217 218 221 226 229 232 234 239 243 248 253 258 265 273 278 285 291 296 300
195 199 197 196 200 200 200 202 203 202 200 199 204 206 204 207 212 213 212 212 217 223 219 215 217 215 213 213 208 206 206 205 203 200 198 198 196 199 203 201 199 199 198 197 201 203 201 200 201 202 202 201 201 202 201 202 203 203 200 199 200 203 203 204 206 209 213 215 218 223 226 229 233 235 240 246 251 255 259 265 273 278 283 290 296 300
194 193 191 193 197 196 196 200 203 202 202 205 206 203 202 207 212 214 214 211 212 218 219 218 219 219 217 214 208 206 207 206 202 200 204 206 202 200 200 199 198 197 197 198 202 203 201 200 201 202 202 201 199 199 200 202 203 201 198 198 201 202 202 204 208 212 214 217 221 225 228 231 233 236 241 247 252 257 261 265 271 278 284 290 295 299
195 194 189 191 194 192 194 200 203 201 201 205 206 204 206 210 212 213 214 213 213 216 218 219 220 221 220 215 211 212 211 208 206 209 211 206 201 200 200 199 199 198 199 201 203 203 202 201 200 200 201 200 198 199 201 201 199 196 197 199 202 204 206 210 215 217 218 220 222 225 228 231 233 237 243 249 254 259 262 266 271 277 284 289 294 298
197 197 188 188 191 192 196 201 203 200 199 203 207 205 206 210 212 213 214 214 215 216 217 219 221 221 219 216 214 214 213 212 211 212 210 204 199 199 201 201 201 201 201 202 202 203 201 200 199 199 200 200 199 199 198 197 194 193 197 201 204 208 210 212 216 218 219 219 220 222 225 230 234 239 245 250 255 259 263 267 270 275 281 286 291 296
195 194 187 189 195 196 199 201 202 203 201 203 208 207 205 206 208 210 213 213 215 218 218 219 223 224 220 218 216 213 211 212 211 208 208 204 199 199 203 204 204 204 203 202 202 203 202 202 201 201 201 200 199 197 194 194 194 195 200 205 210 214 214 215 218 219 219 220 223 226 229 233 237 241 246 251 256 260 263 267 270 273 278 283 288 294
193 194 190 193 199 200 200 201 204 207 205 204 208 209 206 206 208 211 212 211 212 216 219 221 223 224 222 218 216 213 213 214 211 208 207 206 203 204 206 206 207 207 205 202 202 204 204 203 202 202 201 199 197 196 195 197 198 199 204 209 212 215 218 221 223 224 224 225 228 230 233 236 240 243 248 253 257 261 264 267 269 272 276 280 286 292
191 194 191 193 198 198 199 201 205 209 208 207 209 211 209 207 209 213 214 211 214 215 216 219 219 219 221 218 214 212 212 214 213 208 207 208 207 206 205 206 209 208 206 204 203 204 204 203 203 203 200 198 197 197 198 200 202 204 208 213 215 216 219 224 226 227 228 229 232 235 238 243 245 247 250 254 258 260 263 266 268 271 275 279 284 290
191 192 191 192 195 196 198 199 202 206 208 208 209 211 213 210 208 212 215 214 217 217 214 217 217 214 216 216 214 210 208 211 211 206 206 208 208 208 208 208 209 208 206 205 203 203 204 204 205 203 201 199 200 200 201 202 204 207 210 213 216 217 220 223 225 227 229 233 236 240 243 246 246 247 250 253 256 258 261 264 267 271 275 278 283 288
192 193 193 196 197 198 201 201 199 202 206 207 209 211 213 213 209 209 212 213 215 217 218 221 218 209 209 212 214 213 212 214 211 204 205 206 205 208 208 207 209 209 206 204 203 202 203 206 206 204 203 202 202 202 202 202 205 208 210 213 215 216 217 220 223 226 231 235 236 237 241 244 245 245 248 251 254 256 259 263 267 271 275 279 283 288
193 197 199 200 200 201 204 201 197 201 205 207 210 211 211 212 212 209 210 212 213 216 222 225 216 205 205 209 212 214 213 214 211 206 206 205 203 206 208 207 208 209 207 205 204 203 203 206 207 206 205 204 203 203 202 202 205 208 210 212 213 215 216 219 223 228 232 234 232 235 239 242 243 244 247 250 252 255 259 263 268 272 277 281 285 289
195 200 201 202 204 203 202 202 200 203 208 210 211 212 210 211 214 214 214 214 213 217 223 220 208 204 209 212 213 212 209 208 208 207 207 207 208 210 209 208 208 207 206 206 205 204 204 206 207 207 206 205 204 203 202 203 205 209 212 211 211 214 217 220 224 227 232 235 236 239 241 242 243 244 248 252 253 256 260 264 268 273 277 281 285 290
197 200 201 202 205 201 199 203 202 202 207 211 212 214 213 212 215 218 220 216 213 217 221 212 203 209 215 215 213 209 205 204 204 205 207 210 212 210 207 206 207 206 205 206 206 205 205 207 208 208 207 206 204 203 203 204 207 211 213 211 210 213 215 219 223 227 233 239 241 242 242 243 246 247 250 254 255 258 261 265 270 273 276 280 284 289
197 202 204 203 203 204 206 206 202 201 207 210 211 214 215 214 216 219 221 218 214 217 220 214 208 214 220 218 213 209 208 207 206 204 205 208 208 207 207 207 208 207 206 206 207 208 207 206 208 208 208 208 206 205 205 207 210 212 212 210 210 212 216 221 225 230 236 239 240 240 241 244 246 247 251 255 258 261 265 269 272 274 276 280 283 288
198 204 210 207 202 205 212 209 203 203 208 211 212 214 215 216 217 217 218 219 218 219 220 217 216 219 219 215 210 208 206 207 207 205 204 206 205 206 208 210 210 208 207 206 207 210 209 207 208 209 209 210 209 208 208 210 212 213 211 210 211 215 221 226 229 234 240 241 241 239 238 239 242 247 252 256 261 265 268 272 274 275 277 280 283 287
197 204 210 209 203 204 208 209 206 207 211 214 215 214 214 216 217 216 216 219 221 221 220 219 220 220 213 205 203 205 204 204 206 206 207 208 206 206 209 211 210 208 208 208 209 210 209 209 209 209 210 212 210 209 211 211 211 212 211 210 213 218 223 227 231 236 240 243 244 242 239 239 243 250 256 260 264 267 270 273 274 275 277 280 284 287
197 205 208 204 203 206 207 208 210 212 215 216 216 215 214 215 217 218 218 218 220 221 221 220 220 218 212 208 208 209 209 208 209 209 209 209 207 208 209 209 210 210 210 211 210 209 208 209 209 208 210 212 212 211 213 213 212 212 212 212 215 220 224 227 232 237 240 243 244 242 241 244 249 255 261 265 268 270 272 273 272 274 277 280 284 287
197 204 205 201 203 207 205 206 212 215 215 216 219 221 219 217 218 219 219 218 217 218 221 223 221 217 215 215 215 215 214 211 209 209 210 209 209 210 209 208 210 211 210 209 209 208 208 207 207 209 211 213 213 214 215 214 213 213 213 216 220 223 226 228 231 237 242 242 241 240 242 247 252 258 263 267 271 272 273 272 272 275 278 281 284 287
196 202 203 199 203 205 200 204 215 219 219 220 224 224 222 223 223 221 220 220 218 217 219 222 221 218 215 214 214 215 214 211 209 209 209 209 211 213 211 209 208 207 208 208 207 207 207 206 208 211 212 212 213 214 214 215 216 216 217 220 223 223 225 226 230 237 240 238 238 240 244 249 255 260 264 267 269 271 272 273 274 276 279 282 284 287
196 201 202 199 204 205 201 207 216 220 222 225 227 227 224 224 224 221 221 221 219 218 218 218 220 219 215 213 213 214 213 212 214 214 212 211 213 216 214 209 206 206 207 206 205 205 206 206 208 211 211 211 214 215 214 216 220 220 219 220 221 220 221 225 230 234 234 233 236 242 248 255 259 262 265 267 267 268 270 272 272 273 276 279 283 287
196 200 202 201 206 209 207 211 217 222 226 225 226 228 224 222 221 220 222 221 219 218 218 217 220 219 215 214 215 214 212 214 218 219 215 212 215 218 214 207 205 206 205 204 204 205 205 206 207 209 210 211 213 215 215 219 224 222 217 215 215 216 219 225 229 229 229 232 238 245 253 258 260 262 264 265 264 265 267 267 266 267 271 277 284 290
196 200 203 201 205 211 212 212 216 224 230 227 223 222 220 221 221 221 225 224 219 219 220 218 219 219 216 215 215 212 213 217 221 221 217 214 217 218 213 207 206 205 203 203 204 204 205 206 207 208 209 209 212 215 216 219 219 214 208 208 211 214 219 225 226 226 228 232 239 247 255 260 260 260 260 261 261 262 263 262 259 261 268 276 284 290
197 200 204 204 206 212 214 215 217 223 228 224 218 214 213 216 216 217 224 226 221 220 222 221 220 219 219 218 216 213 215 221 224 222 218 216 217 215 209 207 206 205 204 204 203 202 203 204 205 206 207 208 210 212 212 211 209 205 203 206 210 216 221 224 224 224 226 232 240 250 257 259 257 255 257 260 261 261 259 256 256 260 268 275 282 287
201 201 204 209 211 211 213 217 220 222 221 215 210 208 207 209 210 212 220 225 224 223 224 224 223 222 220 218 216 217 219 222 224 220 214 213 213 211 208 207 206 206 205 203 201 200 201 202 203 204 205 207 208 209 208 208 208 208 209 211 215 220 221 221 221 223 227 234 243 251 255 254 252 253 257 260 260 258 255 253 257 263 270 277 281 285
202 202 205 210 213 211 212 218 221 218 214 210 209 208 205 205 209 214 218 224 229 228 226 224 224 224 221 216 217 220 223 225 224 215 209 209 210 209 209 208 207 207 205 202 200 199 199 202 203 202 204 206 206 206 207 208 209 209 210 213 217 219 219 219 222 226 232 239 246 252 254 253 252 254 256 258 256 252 250 253 260 267 271 276 280 284
200 202 205 210 214 213 213 218 222 221 218 214 209 206 206 206 210 217 220 225 232 232 227 223 222 224 222 217 217 221 222 221 217 209 206 208 208 206 206 206 206 207 204 201 201 199 198 201 203 202 203 203 202 202 204 205 207 209 212 215 217 218 219 222 226 232 237 242 246 249 250 250 251 252 252 252 250 248 250 258 266 270 270 273 278 284
198 201 206 210 213 216 215 217 222 224 221 213 204 203 208 212 216 221 224 227 232 232 227 223 221 221 222 221 221 221 218 213 209 205 205 206 205 204 204 204 205 206 203 202 201 198 197 199 201 201 200 200 200 202 203 205 208 212 216 218 218 220 222 224 229 234 238 242 245 246 246 246 247 247 246 245 244 247 255 262 267 269 270 274 281 286
201 202 207 209 211 216 218 218 221 221 212 206 203 207 213 214 217 224 226 226 228 230 228 224 221 221 223 223 220 216 210 207 207 205 204 205 205 205 206 205 205 205 203 201 199 196 195 198 199 198 199 200 201 203 206 209 211 215 218 218 218 220 221 224 229 234 238 242 243 243 242 241 240 240 240 240 242 248 256 261 266 269 273 279 285 290
203 203 206 208 210 214 215 214 216 214 207 205 209 215 215 211 213 221 224 222 223 226 227 225 222 223 222 215 210 208 207 207 207 206 205 205 206 206 206 207 206 203 201 200 198 195 195 197 197 197 198 200 203 205 209 213 215 215 215 215 216 219 222 226 231 235 237 239 238 237 237 235 234 234 234 237 243 249 257 263 266 271 275 280 286 292
205 209 213 214 214 216 213 210 209 208 208 209 212 216 218 216 217 220 223 222 222 224 227 223 217 216 213 204 202 207 209 208 207 206 205 205 205 205 206 207 205 202 201 200 197 196 197 196 196 198 199 201 205 208 211 214 215 213 213 214 217 221 224 228 232 234 235 235 234 233 231 229 228 229 231 237 246 253 259 263 265 271 277 283 290 295
210 214 216 216 216 218 218 215 213 212 213 213 213 217 221 220 220 223 223 223 223 225 227 222 214 213 213 209 207 210 209 205 204 204 204 204 205 206 206 205 203 202 201 200 198 198 199 198 199 200 200 202 205 208 209 212 214 213 213 216 220 223 225 228 229 231 232 232 230 229 227 225 226 228 232 241 249 253 257 261 266 273 281 287 292 297
215 216 215 214 215 218 219 215 212 212 214 215 217 221 222 220 221 225 225 223 224 226 227 225 217 214 216 217 215 212 207 204 203 203 204 205 206 206 206 204 202 201 201 200 199 199 200 201 200 200 200 202 205 207 208 211 214 214 214 217 220 222 224 225 226 228 229 227 227 226 224 221 222 225 233 241 247 249 254 259 265 272 281 289 292 296
217 216 214 215 217 218 219 218 216 215 217 221 223 224 223 221 222 224 225 223 222 224 226 225 220 217 217 217 215 211 205 204 204 203 203 205 206 206 205 204 203 203 202 201 200 200 201 201 200 200 201 204 205 206 209 212 214 214 216 219 220 221 221 223 224 225 224 223 223 221 218 217 220 225 232 236 238 243 251 260 266 270 277 286 291 295
218 216 217 220 219 216 217 222 224 220 218 223 228 226 224 224 224 225 225 223 221 223 224 220 218 217 213 209 209 208 203 202 204 204 203 204 206 206 205 204 204 203 203 202 201 201 201 201 200 200 202 204 205 207 211 213 214 215 216 218 218 218 218 219 221 221 220 220 219 215 213 216 220 226 231 231 232 239 252 266 275 276 277 283 290 297
217 218 221 224 219 214 217 224 227 221 215 218 225 226 225 226 227 227 226 221 220 224 224 218 214 214 210 206 208 208 204 202 203 204 203 203 203 203 203 204 203 202 202 201 201 201 201 201 201 202 203 203 205 208 211 212 212 213 214 215 215 215 216 217 219 219 219 217 213 211 213 218 221 224 229 230 232 239 251 263 275 281 283 287 293 300